Hourly Data Report for July 08, 2021

NORTH CAPE
PRINCE EDWARD ISLAND
Current Station Operator: ECCC - MSC

47°03'29.000" N
63°59'55.000" W
7.60 m
8300516
71987
WNE

Download Data

Hourly Data (July 2021)
Hourly Data Report for July 8, 2021
TIME
LST
Temp Definition
°C
Dew Point Definition
°C
Rel Hum Definition
%
Precip. Amount Definition
mm

Wind Dir Definition
10's deg

Wind Spd Definition
km/h
Visibility Definition
km
Stn Press Definition
kPa
Hmdx Definition


Wind Chill Definition


Weather Definition


00:00 15.6 11.4 76 0.0 28 29   101.33     LegendNANA
01:00 15.4 11.2 76 0.0 29 31   101.35     LegendNANA
02:00 15.1 11.3 78 0.0 29 28   101.43     LegendNANA
03:00 15.0 11.2 78 0.0 29 28   101.51     LegendNANA
04:00 14.7 11.1 79 0.0 30 31   101.59     LegendNANA
05:00 14.5 10.9 79 0.0 32 28   101.69     LegendNANA
06:00 14.7 10.6 77 0.0 33 24   101.80     LegendNANA
07:00 14.8 8.6 66 0.0 36 24   101.92     LegendNANA
08:00 14.9 8.4 65 0.0 1 20   102.02     LegendNANA
09:00 15.0 8.9 67 0.0 1 14   102.09     LegendNANA
10:00 15.2 8.4 64 0.0 2 15   102.15     LegendNANA
11:00 15.1 8.3 64 0.0 3 15   102.19     LegendNANA
12:00 15.7 9.3 66 0.0 4 14   102.23     LegendNANA
13:00 15.6 9.2 66 0.0 5 12   102.25     LegendNANA
14:00 15.8 10.1 69 0.0 6 16   102.25     LegendNANA
15:00 15.8 9.1 64 0.0 8 14   102.30     LegendNANA
16:00 15.6 8.7 63 0.0 10 13   102.34     LegendNANA
17:00 15.3 9.3 67 0.0 11 18   102.34     LegendNANA
18:00 15.0 9.3 69 0.0 13 19   102.33     LegendNANA
19:00 14.5 10.0 74 0.0 12 19   102.31     LegendNANA
20:00 14.6 11.1 80 0.0 13 23   102.31     LegendNANA
21:00 14.5 11.3 81 0.0 13 28   102.32     LegendNANA
22:00 14.6 11.3 81 0.0 13 30   102.30     LegendNANA
23:00 14.8 11.3 80 0.0 13 28   102.27     LegendNANA

Notes on Data Quality.

Legend

  • E = Estimated
  • M = Missing
  • NA = Not Available*
  • [empty] = Indicates an unobserved value
Date modified: